EIN990 EIDW-EICK

Flight info

Callsign EIN990
Flight time 0h 36m
Altitude 20000
Route OLONO4E OLONO DCT TISMO TISMO1R
Aircraft A320/M-SDE3FGHIRWY/LB1

Departure

Time 2026-05-07 14:08
Airport Dublin Airport (EIDW)

Arrival

Time 2026-05-07 14:44
Airport Cork International Airport (EICK)
Time Latitude Longitude Altitude Speed Heading
2026-05-07 13:37 53.42602 -6.26158 219 ft 0 kts
2026-05-07 13:57 53.42591 -6.26160 216 ft 3 kts
2026-05-07 13:58 53.42571 -6.26164 213 ft 3 kts 11°
2026-05-07 13:58 53.42551 -6.26171 212 ft 3 kts 17°
2026-05-07 13:58 53.42532 -6.26183 215 ft 3 kts 30°
2026-05-07 13:58 53.42517 -6.26202 213 ft 3 kts 63°
2026-05-07 13:59 53.42514 -6.26219 213 ft 0 kts 96°
2026-05-07 14:03 53.42514 -6.26218 211 ft 0 kts 96°
2026-05-07 14:03 53.42513 -6.26206 215 ft 4 kts 96°
2026-05-07 14:04 53.42507 -6.26095 211 ft 15 kts 95°
2026-05-07 14:04 53.42495 -6.25932 214 ft 12 kts 106°
2026-05-07 14:04 53.42402 -6.25916 215 ft 21 kts 218°
2026-05-07 14:04 53.42294 -6.26118 211 ft 26 kts 238°
2026-05-07 14:05 53.42272 -6.26405 211 ft 30 kts 275°
2026-05-07 14:05 53.42290 -6.26747 211 ft 30 kts 275°
2026-05-07 14:05 53.42309 -6.27114 217 ft 35 kts 275°
2026-05-07 14:05 53.42325 -6.27413 211 ft 25 kts 275°
2026-05-07 14:06 53.42346 -6.27766 211 ft 33 kts 275°
2026-05-07 14:06 53.42357 -6.27961 215 ft 17 kts 275°
2026-05-07 14:06 53.42369 -6.28179 211 ft 11 kts 275°
2026-05-07 14:06 53.42335 -6.28312 211 ft 14 kts 202°
2026-05-07 14:07 53.42235 -6.28249 218 ft 14 kts 159°
2026-05-07 14:07 53.42199 -6.28200 214 ft 2 kts 95°
2026-05-07 14:07 53.42187 -6.28011 212 ft 55 kts 96°
2026-05-07 14:07 53.42112 -6.26850 219 ft 139 kts 101°
2026-05-07 14:08 53.41995 -6.25088 755 ft 162 kts 96°
2026-05-07 14:08 53.41924 -6.23081 1422 ft 186 kts 96°
2026-05-07 14:08 53.41839 -6.20776 2100 ft 211 kts 99°
2026-05-07 14:08 53.41689 -6.18189 2852 ft 236 kts 100°
2026-05-07 14:09 53.41507 -6.15310 3693 ft 259 kts 100°
2026-05-07 14:09 53.41318 -6.12230 4902 ft 267 kts 98°
2026-05-07 14:09 53.41134 -6.09083 6159 ft 274 kts 99°
2026-05-07 14:09 53.40952 -6.05858 7342 ft 280 kts 99°
2026-05-07 14:10 53.40508 -6.02717 8508 ft 281 kts 118°
2026-05-07 14:10 53.39369 -6.00080 9717 ft 279 kts 141°
2026-05-07 14:10 53.37707 -5.98437 10814 ft 278 kts 164°
2026-05-07 14:10 53.35797 -5.98031 11921 ft 279 kts 186°
2026-05-07 14:11 53.33879 -5.98785 12718 ft 295 kts 198°
2026-05-07 14:11 53.31869 -5.99878 13507 ft 309 kts 199°
2026-05-07 14:11 53.29811 -6.01047 14409 ft 315 kts 200°
2026-05-07 14:11 53.27707 -6.02240 15337 ft 321 kts 199°
2026-05-07 14:12 53.25568 -6.03388 16266 ft 326 kts 199°
2026-05-07 14:12 53.23406 -6.04502 17197 ft 330 kts 198°
2026-05-07 14:12 53.21179 -6.05627 18125 ft 335 kts 198°
2026-05-07 14:12 53.18881 -6.06533 18920 ft 342 kts 189°
2026-05-07 14:13 53.16487 -6.06927 19621 ft 347 kts 187°
2026-05-07 14:13 53.14107 -6.07313 19876 ft 347 kts 187°
2026-05-07 14:13 53.11720 -6.07759 19952 ft 337 kts 192°
2026-05-07 14:13 53.09544 -6.08809 19959 ft 316 kts 201°
2026-05-07 14:14 53.07509 -6.10019 19968 ft 307 kts 201°
2026-05-07 14:14 53.05505 -6.11216 19966 ft 304 kts 201°
2026-05-07 14:14 53.03522 -6.12401 19962 ft 303 kts 201°
2026-05-07 14:14 53.01538 -6.13579 19963 ft 302 kts 201°
2026-05-07 14:15 52.99556 -6.14752 19975 ft 302 kts 201°
2026-05-07 14:15 52.97577 -6.15926 19975 ft 302 kts 202°
2026-05-07 14:15 52.95746 -6.17506 19975 ft 301 kts 216°
2026-05-07 14:15 52.94190 -6.19820 19976 ft 300 kts 229°
2026-05-07 14:16 52.93001 -6.22674 19974 ft 301 kts 238°
2026-05-07 14:16 52.91912 -6.25640 19973 ft 301 kts 237°
2026-05-07 14:16 52.90817 -6.28603 19965 ft 302 kts 237°
2026-05-07 14:16 52.89717 -6.31563 19966 ft 301 kts 237°
2026-05-07 14:17 52.88612 -6.34518 19976 ft 302 kts 237°
2026-05-07 14:17 52.87506 -6.37472 19989 ft 302 kts 237°
2026-05-07 14:17 52.86416 -6.40388 19976 ft 302 kts 237°
2026-05-07 14:17 52.85311 -6.43343 19976 ft 302 kts 237°
2026-05-07 14:18 52.84201 -6.46306 19979 ft 302 kts 237°
2026-05-07 14:18 52.83091 -6.49270 19986 ft 302 kts 237°
2026-05-07 14:18 52.81984 -6.52232 19979 ft 302 kts 237°
2026-05-07 14:18 52.80885 -6.55161 19978 ft 302 kts 237°
2026-05-07 14:19 52.79772 -6.58123 19975 ft 302 kts 237°
2026-05-07 14:19 52.78654 -6.61088 19973 ft 303 kts 237°
2026-05-07 14:19 52.77541 -6.64040 19978 ft 303 kts 237°
2026-05-07 14:19 52.76440 -6.66958 19971 ft 303 kts 237°
2026-05-07 14:20 52.75326 -6.69909 19981 ft 303 kts 237°
2026-05-07 14:20 52.74205 -6.72875 19977 ft 303 kts 237°
2026-05-07 14:20 52.73090 -6.75823 19974 ft 303 kts 237°
2026-05-07 14:20 52.71927 -6.78723 19978 ft 302 kts 232°
2026-05-07 14:21 52.70642 -6.81473 19985 ft 302 kts 232°
2026-05-07 14:21 52.69360 -6.84224 19972 ft 302 kts 232°
2026-05-07 14:21 52.68091 -6.86942 19978 ft 303 kts 232°
2026-05-07 14:21 52.66802 -6.89695 19975 ft 303 kts 232°
2026-05-07 14:22 52.65512 -6.92446 19981 ft 302 kts 232°
2026-05-07 14:22 52.64224 -6.95195 19983 ft 302 kts 232°
2026-05-07 14:22 52.62954 -6.97906 19981 ft 302 kts 232°
2026-05-07 14:22 52.61668 -7.00646 19980 ft 302 kts 232°
2026-05-07 14:23 52.60381 -7.03386 19984 ft 302 kts 232°
2026-05-07 14:23 52.59097 -7.06120 19987 ft 302 kts 232°
2026-05-07 14:23 52.57808 -7.08862 19979 ft 302 kts 232°
2026-05-07 14:23 52.56523 -7.11596 19983 ft 301 kts 232°
2026-05-07 14:24 52.55238 -7.14324 19978 ft 301 kts 232°
2026-05-07 14:24 52.53968 -7.17020 19972 ft 302 kts 232°
2026-05-07 14:24 52.52682 -7.19746 19968 ft 302 kts 232°
2026-05-07 14:24 52.51392 -7.22477 19971 ft 302 kts 232°
2026-05-07 14:25 52.50097 -7.25210 19976 ft 302 kts 232°
2026-05-07 14:25 52.48804 -7.27933 19989 ft 302 kts 232°
2026-05-07 14:25 52.47527 -7.30618 19983 ft 302 kts 232°
2026-05-07 14:25 52.46230 -7.33341 19974 ft 302 kts 231°
2026-05-07 14:26 52.44935 -7.36056 19986 ft 302 kts 232°
2026-05-07 14:26 52.43636 -7.38780 19976 ft 303 kts 231°
2026-05-07 14:26 52.42337 -7.41503 19982 ft 302 kts 232°
2026-05-07 14:26 52.41041 -7.44221 19980 ft 303 kts 232°
2026-05-07 14:27 52.39760 -7.46907 19992 ft 303 kts 232°
2026-05-07 14:27 52.38460 -7.49627 19998 ft 302 kts 231°
2026-05-07 14:27 52.37158 -7.52345 19992 ft 302 kts 231°
2026-05-07 14:27 52.35861 -7.55048 19978 ft 302 kts 231°
2026-05-07 14:28 52.34560 -7.57760 19983 ft 302 kts 231°
2026-05-07 14:28 52.33269 -7.60449 19903 ft 308 kts 231°
2026-05-07 14:28 52.31932 -7.63226 19458 ft 311 kts 231°
2026-05-07 14:28 52.30594 -7.66001 19028 ft 309 kts 232°
2026-05-07 14:29 52.29264 -7.68764 18598 ft 307 kts 232°
2026-05-07 14:29 52.27943 -7.71506 18158 ft 306 kts 232°
2026-05-07 14:29 52.26626 -7.74233 17690 ft 304 kts 232°
2026-05-07 14:29 52.25337 -7.76895 17294 ft 301 kts 232°
2026-05-07 14:30 52.24043 -7.79567 16882 ft 298 kts 232°
2026-05-07 14:30 52.22760 -7.82214 16493 ft 296 kts 232°
2026-05-07 14:30 52.21483 -7.84841 16100 ft 294 kts 231°
2026-05-07 14:30 52.20218 -7.87447 15710 ft 292 kts 232°
2026-05-07 14:31 52.18973 -7.90014 15331 ft 291 kts 232°
2026-05-07 14:31 52.17713 -7.92605 14950 ft 290 kts 231°
2026-05-07 14:31 52.16463 -7.95173 14563 ft 289 kts 231°
2026-05-07 14:31 52.15214 -7.97731 14183 ft 288 kts 231°
2026-05-07 14:32 52.14029 -8.00352 13792 ft 287 kts 239°
2026-05-07 14:32 52.13215 -8.03322 13356 ft 287 kts 252°
2026-05-07 14:32 52.12768 -8.06481 12950 ft 285 kts 256°
2026-05-07 14:32 52.12349 -8.09634 12520 ft 285 kts 256°
2026-05-07 14:33 52.11937 -8.12700 12346 ft 275 kts 256°
2026-05-07 14:33 52.11523 -8.15757 11781 ft 280 kts 256°
2026-05-07 14:33 52.11097 -8.18884 11201 ft 284 kts 256°
2026-05-07 14:33 52.10668 -8.22040 10653 ft 287 kts 256°
2026-05-07 14:34 52.10240 -8.25180 10110 ft 289 kts 256°
2026-05-07 14:34 52.09804 -8.28370 9535 ft 289 kts 256°
2026-05-07 14:34 52.09365 -8.31566 8949 ft 289 kts 256°
2026-05-07 14:34 52.08926 -8.34751 8364 ft 286 kts 257°
2026-05-07 14:35 52.08504 -8.37819 7771 ft 271 kts 256°
2026-05-07 14:35 52.08095 -8.40790 6922 ft 267 kts 257°
2026-05-07 14:35 52.07692 -8.43710 5988 ft 268 kts 258°
2026-05-07 14:35 52.07672 -8.46705 5018 ft 268 kts 282°
2026-05-07 14:36 52.08229 -8.49598 4043 ft 267 kts 286°
2026-05-07 14:36 52.08838 -8.52438 3305 ft 260 kts 287°
2026-05-07 14:36 52.09412 -8.55062 3107 ft 233 kts 286°
2026-05-07 14:36 52.09918 -8.57409 3029 ft 206 kts 285°
2026-05-07 14:37 52.10102 -8.59522 3039 ft 176 kts 259°
2026-05-07 14:37 52.09008 -8.62307 3022 ft 133 kts 213°
2026-05-07 14:37 52.08163 -8.62842 3026 ft 130 kts 194°
2026-05-07 14:38 52.07266 -8.62835 3032 ft 130 kts 173°
2026-05-07 14:38 52.06406 -8.62370 3030 ft 133 kts 165°
2026-05-07 14:38 52.05496 -8.61828 3047 ft 146 kts 164°
2026-05-07 14:38 52.04533 -8.61251 3044 ft 148 kts 163°
2026-05-07 14:39 52.03559 -8.60669 3041 ft 150 kts 164°
2026-05-07 14:39 52.02579 -8.60083 3041 ft 150 kts 163°
2026-05-07 14:39 52.01603 -8.59500 3038 ft 149 kts 164°
2026-05-07 14:39 52.00632 -8.58920 3034 ft 149 kts 163°
2026-05-07 14:40 51.99652 -8.58335 3034 ft 149 kts 164°
2026-05-07 14:40 51.98690 -8.57762 3038 ft 150 kts 164°
2026-05-07 14:40 51.97707 -8.57176 3032 ft 150 kts 163°
2026-05-07 14:40 51.96724 -8.56591 2937 ft 150 kts 164°
2026-05-07 14:41 51.95748 -8.56009 2777 ft 149 kts 165°
2026-05-07 14:41 51.94777 -8.55432 2590 ft 148 kts 166°
2026-05-07 14:41 51.93822 -8.54863 2398 ft 145 kts 165°
2026-05-07 14:41 51.92884 -8.54306 2198 ft 143 kts 165°
2026-05-07 14:42 51.91949 -8.53751 2024 ft 142 kts 165°
2026-05-07 14:42 51.91023 -8.53200 1813 ft 141 kts 165°
2026-05-07 14:42 51.90122 -8.52665 1624 ft 137 kts 167°
2026-05-07 14:42 51.89234 -8.52138 1429 ft 135 kts 166°
2026-05-07 14:43 51.88351 -8.51615 1236 ft 135 kts 167°
2026-05-07 14:43 51.87479 -8.51072 1065 ft 132 kts 163°
2026-05-07 14:43 51.86636 -8.50535 858 ft 129 kts 165°
2026-05-07 14:43 51.85794 -8.50072 701 ft 128 kts 165°
2026-05-07 14:44 51.84938 -8.49581 551 ft 131 kts 166°
2026-05-07 14:44 51.84157 -8.49135 505 ft 77 kts 160°
2026-05-07 14:44 51.83841 -8.48948 505 ft 41 kts 162°
2026-05-07 14:44 51.83766 -8.48892 505 ft 2 kts 205°
2026-05-07 14:45 51.83786 -8.48910 505 ft 9 kts 354°
2026-05-07 14:45 51.83907 -8.48971 505 ft 27 kts 339°
2026-05-07 14:45 51.84132 -8.49113 505 ft 39 kts 338°
2026-05-07 14:45 51.84203 -8.49156 505 ft 12 kts 341°
2026-05-07 14:46 51.84309 -8.49146 505 ft 17 kts 50°
2026-05-07 14:46 51.84389 -8.48997 505 ft 16 kts
2026-05-07 14:46 51.84551 -8.49080 505 ft 32 kts 339°
2026-05-07 14:46 51.84691 -8.49162 505 ft 16 kts 339°
2026-05-07 14:47 51.84768 -8.49204 505 ft 12 kts 346°
2026-05-07 14:47 51.84822 -8.49158 505 ft 5 kts 71°
2026-05-07 14:47 51.84839 -8.49079 505 ft 8 kts 70°
2026-05-07 14:47 51.84844 -8.49054 505 ft 0 kts 70°
2026-05-07 14:48 51.84845 -8.49054 505 ft 0 kts 72°